Yokota AB current weather conditions

sailwx.info

Wind from 350 at 6 knots

Air temperature -0.0° C
Visibility: greater than 3.5 NM
Dewpoint -0.0° C
Present weather: Light snow. Mist.

Last reported at 2015-Jan-29 20:42 UTC.
Time now 2015-Jan-29 22:23 UTC

Location: N 35°45' E 139°21'.
View on Google Maps.

See reports from other nearby stations

  
Tides and Currents Weather Stations Pressure Air Temp Water Temp Dewpoint Dewpoint Depression Visibility Wind Speed Wind Dir Waves Ship Positions
date/time (UTC)wind fromknots sea level pressurealtimeterstation pressurevisibilityair tempwater tempwave heightnotes
2015-Jan-29 21:04 350 8 5.2-0.0 Light snow. Mist.
2015-Jan-29 21:02 350 8 5.2-0.0 Light snow. Mist.
2015-Jan-29 21:00 350 6 3.5-0.0 Light snow. Mist.
2015-Jan-29 20:58 350 6 3.5 1.0 Light snow. Mist.
2015-Jan-29 20:42 350 6 3.5-0.0 Light snow. Mist.
2015-Jan-29 20:40 350 6 3.5-0.0 Light snow. Mist.
2015-Jan-29 20:32 350 5 2.6-0.0 Light snow. Mist.
2015-Jan-29 20:20 350 6 2.6-0.0 Light snow. Mist.
2015-Jan-29 20:14 340 6 2.6-0.0 Light snow. Mist.
2015-Jan-29 20:10 340 6 2.6-0.0 Light snow. Mist.
2015-Jan-29 20:04 340 5 3.5-0.0 Light snow. Mist.
2015-Jan-29 20:00 340 5 4.3-0.0 Light snow. Mist.
2015-Jan-29 19:58 340 5 4.3 1.0 Light snow. Mist.
2015-Jan-29 19:42 350 5 4.3-0.0 Light snow. Mist.
2015-Jan-29 19:16 350 4 5.2-0.0 Light snow. Mist.
2015-Jan-29 19:12 350 5 4.3-0.0 Light snow. Mist.
2015-Jan-29 19:00 350 5 4.3-0.0 Light snow. Mist.
2015-Jan-29 18:58 350 6 4.3 1.0 Light snow. Mist.
2015-Jan-29 18:56 350 6 4.3-0.0 Light snow. Mist.
2015-Jan-29 18:50 360 5 4.3-0.0 Light snow.
2015-Jan-29 18:44 350 6 4.3 1.0 Light snow.
2015-Jan-29 18:24 340 7 4.3-0.0 Light snow.
2015-Jan-29 18:10 330 6 4.3 1.0 Light snow.
2015-Jan-29 18:04 350 6 5.2 1.0 Light snow.
2015-Jan-29 17:58 350 5 7.0 1.0 Light snow.
2015-Jan-29 17:54 7.8 1.0 Light snow.
2015-Jan-29 17:52 360 5 7.8 1.0 Light snow.
2015-Jan-29 17:44 360 4 7.8 2.0 Light snow.
2015-Jan-29 17:21 360 4 8.7 2.0 Precipitation.
2015-Jan-29 17:13 360 4 8.7 2.0 Precipitation.
2015-Jan-29 16:58 340 4 8.7 2.0
2015-Jan-29 15:58 360 2 8.7 1.0
2015-Jan-29 14:58 320 4 8.7 2.0
2015-Jan-29 13:58 330 3 8.7 1.0
2015-Jan-29 12:58 270 5 8.7 2.0
2015-Jan-29 11:58 250 1 8.7 3.0
2015-Jan-29 10:58 270 4 8.7 4.0
2015-Jan-29 09:58 170 3 8.7 4.0
2015-Jan-29 08:58 120 3 8.7 5.0
2015-Jan-29 07:58 180 2 8.7 5.0
2015-Jan-29 06:58 150 3 8.7 6.0
2015-Jan-29 05:58 090 4 8.7 6.0
2015-Jan-29 04:58 8.7 7.0
2015-Jan-29 03:58 8.7 7.0
2015-Jan-29 02:58 8.7 6.0
2015-Jan-29 01:58 040 11 8.7 6.0
2015-Jan-29 00:58 030 13 8.7 5.0
2015-Jan-28 23:58 360 7 8.7 3.0
2015-Jan-28 22:58 020 9 8.7 1.0
2015-Jan-28 21:58 340 4 8.7-1.0
2015-Jan-28 20:58 350 7 8.7-0.0
2015-Jan-28 19:58 010 8 8.7-2.0
2015-Jan-28 18:58 010 8 8.7-4.0
2015-Jan-28 17:58 020 8 8.7-4.0
2015-Jan-28 16:58 020 8 8.7-3.0
2015-Jan-28 15:58 020 6 8.7-4.0
2015-Jan-28 14:58 030 6 8.7-3.0
2015-Jan-28 13:58 020 5 8.7-2.0
2015-Jan-28 12:58 020 5 8.7-1.0
2015-Jan-28 11:58 010 10 8.7-0.0
2015-Jan-28 10:58 010 14 8.7 1.0
2015-Jan-28 09:58 020 13 8.7 2.0
2015-Jan-28 08:58 030 18 gusting 26 8.7 3.0
2015-Jan-28 07:58 030 12 gusting 22 8.7 4.0
2015-Jan-28 06:58 020 18 gusting 26 8.7 6.0
2015-Jan-28 05:58 360 17 gusting 24 8.7 7.0
2015-Jan-28 04:58 360 20 gusting 27 8.7 7.0
2015-Jan-28 03:58 010 20 gusting 26 8.7 8.0
2015-Jan-28 02:58 350 15 gusting 23 8.7 8.0
2015-Jan-28 02:48 350 15 gusting 20 8.7 8.0
2015-Jan-28 01:58 030 14 8.7 7.0
2015-Jan-28 00:58 010 14 gusting 20 8.7 6.0
2015-Jan-27 23:58 030 12 8.7 3.0
2015-Jan-27 22:58 030 11 8.7 2.0